Location: Sternwarte-Kraichtal
(49.1689°N, 8.6996°E)
Time: 19:54:04
(UTC+02:00)

Vanguard 2 Rocket - Pass Details

Date: 03 June 2022
Orbit: 553 x 3323 km, 32.9° (Epoch: 02 July)

Event Time Altitude Azimuth Distance (km) Brightness Sun altitude
Rises 19:26:19 0° 273° (W) 6,887 13.0 16.3°
Reaches altitude 10° 19:35:50 10° 248° (WSW) 5,215 11.7 14.8°
Maximum altitude 19:39:55 12° 232° (SW) 4,718 11.1 14.2°
Drops below altitude 10° 19:43:33 10° 215° (SW) 4,498 10.7 13.6°
Sets 19:49:56 0° 186° (S) 4,786 10.4 12.6°
